Regional Weather Roundup
Issued by NWS

Home | Current Version | Previous Version | Graphics & Text | Print | Product List | Glossary On
Versions: 1 2 3 4 5 6 7 8 9 10 11 12 13 14 15 16 17 18 19 20 21 22 23 24 25 26 27 28 29 30 31 32 33 34 35 36 37 38 39 40 41 42 43 44 45 46 47 48 49 50
000
ASUS43 KMKX 231600
RWRWI

WISCONSIN REGIONAL WEATHER ROUNDUP
NATIONAL WEATHER SERVICE MILWAUKEE/SULLIVAN WI
1100 AM CDT FRI JUN 23 2017

NOTE: "FAIR" INDICATES FEW OR NO CLOUDS BELOW 12,000 FEET WITH NO
SIGNIFICANT WEATHER AND/OR OBSTRUCTIONS TO VISIBILITY.

WIZ001-002-006>008-014>016-023>028-231700-
NORTHWEST WISCONSIN

CITY           SKY/WX    TMP DP  RH WIND       PRES   REMARKS
SUPERIOR ARPT  NOT AVBL
ASHLAND        PTSUNNY   67  51  56 W16G29    29.69R
HAYWARD        PTSUNNY   66  49  54 VRB3      29.72R
SIREN          PTSUNNY   66  50  55 NW14      29.74S
CUMBERLAND     PTSUNNY   64  50  59 W13G21    29.75R
RICE LAKE      PTSUNNY   66  50  57 W12G17    29.76R
CHETEK         MOSUNNY   66  52  60 W9G16     29.75R
LADYSMITH      MOSUNNY   67  52  58 W10       29.74R
EAU CLAIRE     NOT AVBL
MENOMONIE      SUNNY     67  52  59 W15G21    29.76S
NEW RICHMOND   PTSUNNY   67  51  56 W12       29.77F
OSCEOLA        PTSUNNY   66  53  62 NW15      29.79F
$$

WIZ003>005-009-010-017-018-231700-
NORTH CENTRAL WISCONSIN

CITY           SKY/WX    TMP DP  RH WIND       PRES   REMARKS
MANITOWISH WTR MOSUNNY   65  50  58 W14G21    29.66F
ARBOR VITAE    MOSUNNY   66  51  58 W10G17    29.67S
WOODRUFF       MOSUNNY   66  51  58 W10G17    29.67S
RHINELANDER    SUNNY     69  50  50 W16G25    29.68S
EAGLE RIVER    SUNNY     67  47  48 W10G18    29.65F
LAND O LAKES   PTSUNNY   66  46  47 W8G16     29.67S
PHILLIPS       SUNNY     64  51  61 W7        29.70R
TOMAHAWK       NOT AVBL
MEDFORD        SUNNY     65  53  63 W10       29.71S
MERRILL        SUNNY     69  52  54 NW12      29.68F
$$

WIZ029-030-035-036-043>047-231700-
CENTRAL WISCONSIN

CITY           SKY/WX    TMP DP  RH WIND       PRES   REMARKS
WAUSAU         SUNNY     71  54  54 W13       29.67F
MOSINEE          N/A     72  54  53 W13G18    29.70F
MARSHFIELD     SUNNY     69  54  58 W13G21    29.70F
STEVENS POINT  SUNNY     69  53  55 W10       29.70F
WAUPACA        MOSUNNY   75  58  54 W8        29.69F
WAUTOMA        SUNNY     74  62  66 SW7       29.70F
WISC RAPIDS    SUNNY     75  58  55 W13G20    29.71F
CAMP DOUGLAS   NOT AVBL
$$

WIZ011>013-019>022-031-037>040-048>050-231700-
NORTHEAST WISCONSIN

CITY           SKY/WX    TMP DP  RH WIND       PRES   REMARKS
ANTIGO         SUNNY     69  56  63 W10       29.68F
SHAWANO        MOSUNNY   74  58  57 W8        29.66F
OCONTO         MOSUNNY   74  55  52 W8        29.64S
STURGEON BAY     N/A     72  56  57 W9          N/A
GREEN BAY      MOSUNNY   76  61  59 W9        29.66S
MANITOWOC      NOT AVBL
APPLETON       MOSUNNY   72  57  60 SW8       29.67F
CLINTONVILLE   CLOUDY    73  55  53 W10       29.67F
OSHKOSH        MOSUNNY   73  58  59 VRB5      29.68F
$$

WIZ032>034-041-042-053>061-231700-
SOUTHWEST WISCONSIN

CITY           SKY/WX    TMP DP  RH WIND       PRES   REMARKS
LA CROSSE      SUNNY     74  58  57 W12       29.73F
SPARTA         SUNNY     71  61  70 W9        29.73F
VIROQUA        SUNNY     71  61  71 W12       29.75F
BOSCOBEL       SUNNY     76  60  57 VRB7      29.74F
PRAIRIE DU CHI SUNNY     75  59  56 SW8       29.75F
PLATTEVILLE    SUNNY     73  64  74 NW8       29.77F
$$

WIZ056-057-062-063-064-067-068-231700-
SOUTH CENTRAL WISCONSIN

CITY           SKY/WX    TMP DP  RH WIND       PRES   REMARKS
REEDSBURG      SUNNY     72  64  78 W8        29.72F
BARABOO/DELLS  SUNNY     72  61  69 SW7       29.72F
LONE ROCK      NOT AVBL
MINERAL POINT  MOSUNNY   73  64  73 W10       29.76F
MADISON        PTSUNNY   74  60  61 VRB5      29.72F
MIDDLETON      MOSUNNY   74  62  66 W6        29.74S
WATERTOWN      MOSUNNY   73  60  64 W6        29.71F
MONROE         MOSUNNY   72  59  64 NW7       29.75S
JANESVILLE     MOSUNNY   75  59  57 N6        29.72F
$$

WIZ051-052-058>065-066-070>072-231700-
SOUTHEAST WISCONSIN

CITY           SKY/WX    TMP DP  RH WIND       PRES   REMARKS
MILWAUKEE      CLOUDY    75  60  59 W13       29.69F
WAUKESHA       SUNNY     72  59  64 NW10      29.73S
MILWAUKEE/TIMM SUNNY     73  55  53 W10G17    29.71S
RACINE         CLOUDY    73  61  65 NW12      29.71S
KENOSHA        CLOUDY    72  60  66 NW10      29.70F
FOND DU LAC    CLOUDY    74  54  49 W6        29.70S
SHEBOYGAN      MOSUNNY   74  54  49 NW7       29.68F
WEST BEND      MOSUNNY   72  55  56 NW12      29.70S
JUNEAU         MOSUNNY   72  58  62 CALM      29.72F
$$

LSZ147-162-231700-
LAKE SUPERIOR

STATION/POSITION TIME  TEMP    WIND        PRES    WAVE
                       AIR SEA DIR/SP/G            HT/PER
                 (UTC) (F)     (DEG/KT/KT) (MB)    (FT/S)
W MID LAKE BUOY  1450   46 39  250/ 14/ 14 1002.8R   1/ 3
DEVILS ISLAND    1500   56     240/ 21/ 24 1004.0R
SAXON HARBOR     1530   66     300/ 12/ 18 1004.1F
$$

LMZ867-665-643>646-231700-
LAKE MICHIGAN

STATION/POSITION TIME  TEMP    WIND        PRES    WAVE
                       AIR SEA DIR/SP/G            HT/PER
                 (UTC) (F)     (DEG/KT/KT) (MB)    (FT/S)
CHAMBERS ISLAND  1540   69     170/  6/ 10 1003.4S
S GREEN BAY BUOY 1530   68     230/  8/ 10 1004.0R
N MID LAKE BUOY  1450   59 56  270/  8/  8 1003.5R   1
NORTHPORT PIER   1540   72     210/  3/  7 1003.4R
KEWAUNEE LAKESHO 1530   71     280/  6/  8 1004.1R
SHEBOYGAN LAKESH 1500   71     290/  9/ 11 1004.5R
PORT WASHINGTON  1540   75     310/  7/ 15 1006.1S
ATWATER BUOY     1409   65 60  280/ 10/ 14 1005.6R
MILWAUKEE LAKESH 1540   72     310/  9/ 13   N/A
S MID LAKE BUOY  1450   62 61  280/  8/  8 1005.1R   1/ 4
KENOSHA   LAKESH 1500   69     310/  9/ 12 1005.8
$$

TC  - TEMPERATURE IN CELSIUS
VSB - VISIBILITY IN STATUTE MILES
WCI - WIND CHILL INDEX
HX  - HEAT INDEX





USA.gov is the U.S. government's official web portal to all federal, state and local government web resources and services.